Cervinia, Italy 16 day weather forecast

Slopes altitude range 2050 m - 3480m

Number of lifts: 57 Pistes: 350km

In some cases the lift and piste totals shown are for the ski domain (e.g. Three Valleys) rather than individual resort (e.g. Courchevel)

Overview

The 16 day weather forecast is fully updated 4 times every day.

    • Sat 18 AUG 2018
    • Sat 18
    • 6C 9C
    • Sun 19 AUG 2018
    • Sun 19
    • 6C 11C
    • Mon 20 AUG 2018
    • Mon 20
    • 6C 11C
    • Tue 21 AUG 2018
    • Tue 21
    • 7C 11C
    • Wed 22 AUG 2018
    • Wed 22
    • 7C 10C
    • Thu 23 AUG 2018
    • Thu 23
    • 7C 11C
    • Fri 24 AUG 2018
    • Fri 24
    • 5C 10C
    • Sat 25 AUG 2018
    • Sat 25
    • 2C 8C
    • Sun 26 AUG 2018
    • Sun 26
    • 6C 12C
    • Mon 27 AUG 2018
    • Mon 27
    • 5C 12C
    • Tue 28 AUG 2018
    • Tue 28
    • 10C 17C
    • Wed 29 AUG 2018
    • Wed 29
    • 10C 19C
    • Thu 30 AUG 2018
    • Thu 30
    • 12C 17C
    • Fri 31 AUG 2018
    • Fri 31
    • 11C 19C
    • Sat 01 SEP 2018
    • Sat 01
    • 10C 17C
    • Sun 02 SEP 2018
    • Sun 02
    • 9C 11C

Date:

Time Type 0°C level Temp Chill Snow Cloud Speed Gust Dir Press
12:00 4002m 9°C 9_0 0cm 91% 0mph 1mph 1020mB
15:00 4079m 10°C 10_1 0cm 99% 1mph 1mph 1019mB
18:00 4043m 10°C 10_1 0cm 99% 1mph 2mph 1020mB
21:00 4045m 7°C 7_3 0cm 100% 3mph 3mph 1022mB
0:00 4134m 3°C 3_5 0cm 65% 5mph 7mph 1022mB
3:00 4140m 3°C 3_6 0cm 13% 6mph 8mph 1022mB
6:00 4106m 3°C 3_5 0cm 56% 5mph 6mph 1022mB
9:00 4038m 6°C 6_2 0cm 100% 2mph 3mph 1022mB
12:00 4037m 11°C 11_2 0cm 100% 2mph 3mph 1021mB
15:00 4136m 11°C 11_3 0cm 100% 3mph 3mph 1020mB
18:00 4152m 11°C 11_4 0cm 100% 4mph 5mph 1021mB
21:00 4186m 7°C 7_2 0cm 100% 2mph 2mph 1022mB
0:00 4124m 6°C 6_1 0cm 99% 1mph 1mph 1022mB
3:00 4147m 4°C 4_1 0cm 93% 1mph 1mph 1021mB
6:00 4152m 4°C 4_1 0cm 93% 1mph 1mph 1021mB
9:00 4121m 6°C 6_4 0cm 92% 4mph 3mph 1021mB
12:00 4170m 11°C 11_6 0cm 96% 6mph 6mph 1019mB
15:00 4237m 11°C 11_8 0cm 100% 8mph 9mph 1018mB
18:00 4190m 11°C 11_7 0cm 100% 7mph 9mph 1019mB
21:00 4318m 7°C 7_3 0cm 100% 3mph 4mph 1021mB
0:00 4355m 7°C 7_2 0cm 100% 2mph 2mph 1021mB
3:00 4325m 4°C 4_4 0cm 84% 4mph 5mph 1020mB
6:00 4277m 3°C 3_5 0cm 85% 5mph 5mph 1021mB
9:00 4243m 7°C 7_3 0cm 52% 3mph 3mph 1020mB
12:00 4283m 11°C 11_1 0cm 73% 1mph 2mph 1019mB
15:00 4321m 11°C 11_3 0cm 100% 3mph 4mph 1018mB
18:00 4244m 11°C 11_1 0cm 100% 1mph 2mph 1019mB
21:00 4304m 8°C 8_5 0cm 100% 5mph 6mph 1021mB
0:00 4207m 7°C 7_6 0cm 100% 6mph 7mph 1021mB
3:00 4168m 7°C 7_6 0cm 100% 6mph 7mph 1021mB
6:00 4143m 6°C 6_6 0cm 99% 6mph 7mph 1021mB
9:00 4114m 7°C 7_6 0cm 98% 6mph 6mph 1020mB
12:00 4173m 10°C 10_5 0cm 99% 5mph 5mph 1019mB
15:00 4196m 10°C 10_4 0cm 100% 4mph 5mph 1018mB
18:00 4178m 10°C 10_3 0cm 100% 3mph 4mph 1018mB
21:00 4199m 7°C 7_1 0cm 100% 1mph 1mph 1019mB
0:00 4167m 7°C 7_2 0cm 100% 2mph 3mph 1019mB
3:00 4107m 6°C 6_2 0cm 100% 2mph 2mph 1018mB
6:00 4111m 5°C 5_2 0cm 100% 2mph 2mph 1018mB
9:00 4048m 7°C 7_3 0cm 100% 3mph 3mph 1017mB
12:00 4148m 11°C 11_4 0cm 98% 4mph 5mph 1015mB
15:00 4115m 11°C 11_6 0cm 100% 6mph 8mph 1014mB
18:00 4051m 11°C 11_5 0cm 100% 5mph 6mph 1015mB
21:00 4063m 6°C 6_3 0cm 100% 3mph 4mph 1016mB
0:00 4079m 5°C 5_2 0cm 100% 2mph 3mph 1015mB
3:00 3919m 5°C 5_2 0cm 100% 2mph 3mph 1015mB
6:00 3915m 5°C 5_4 0cm 100% 4mph 5mph 1015mB
9:00 3846m 5°C 5_7 0cm 100% 7mph 7mph 1015mB
12:00 3945m 10°C 10_7 0cm 95% 7mph 7mph 1014mB
15:00 3932m 10°C 10_8 0cm 86% 8mph 9mph 1014mB
18:00 3753m 10°C 10_7 0cm 93% 7mph 8mph 1015mB
21:00 3514m 4°C 4_7 0cm 100% 7mph 7mph 1016mB
0:00 3425m 3°C 3_5 0cm 100% 5mph 6mph 1016mB
3:00 3259m 2°C 2_5 0cm 100% 5mph 5mph 1015mB
6:00 3181m 2°C 2_5 1cm 100% 5mph 5mph 1015mB
9:00 3254m 2°C 2_6 0cm 95% 6mph 5mph 1015mB
12:00 3474m 8°C 8_7 0cm 91% 7mph 6mph 1013mB
15:00 3571m 9°C 9_9 0cm 100% 9mph 8mph 1012mB
18:00 3346m 9°C 9_7 0cm 100% 7mph 8mph 1013mB
21:00 3678m 6°C 6_8 0cm 98% 8mph 8mph 1015mB
0:00 3569m 5°C 5_8 0cm 98% 8mph 8mph 1015mB
3:00 3477m 5°C 5_7 0cm 98% 7mph 7mph 1014mB
6:00 3447m 4°C 4_7 0cm 98% 7mph 7mph 1014mB
9:00 3338m 6°C 6_2 0cm 66% 2mph 3mph 1014mB
12:00 3421m 12°C 12_2 0cm 49% 2mph 2mph 1013mB
15:00 3429m 12°C 12_2 0cm 97% 2mph 3mph 1013mB
18:00 3409m 12°C 12_4 0cm 88% 4mph 4mph 1015mB
21:00 3472m 4°C 4_7 0cm 0% 7mph 7mph 1017mB
0:00 3471m 3°C 3_7 0cm 0% 7mph 7mph 1018mB
3:00 3495m 3°C 3_7 0cm 0% 7mph 8mph 1018mB
6:00 3493m 3°C 3_6 0cm 0% 6mph 6mph 1019mB
9:00 3475m 6°C 6_2 0cm 0% 2mph 2mph 1018mB
12:00 3532m 12°C 12_3 0cm 0% 3mph 3mph 1018mB
15:00 3707m 13°C 13_2 0cm 30% 2mph 2mph 1017mB
18:00 3961m 13°C 13_1 0cm 31% 1mph 2mph 1019mB
21:00 4106m 5°C 5_3 0cm 26% 3mph 4mph 1021mB
0:00 4168m 4°C 4_4 0cm 35% 4mph 5mph 1021mB
3:00 4236m 4°C 4_4 0cm 31% 4mph 5mph 1021mB
6:00 4305m 3°C 3_4 0cm 15% 4mph 4mph 1021mB
Afternoon 0.0416667mm 0.1875 4333m 17°C 17_3 0cm 44% 3mph 5mph 1020mB
Morning 0mm 0 4460m 8°C 8_2 0cm 22% 2mph 4mph 1023mB
Afternoon 0.130208mm 1.5 4409m 19°C 19_3 0cm 43% 3mph 4mph 1021mB
Morning 0.46875mm 5.4375 4307m 10°C 10_2 0cm 86% 2mph 2mph 1023mB
Afternoon 1.14062mm 13 4050m 17°C 17_3 0cm 94% 3mph 4mph 1020mB
Morning 0.28125mm 1.1875 3978m 10°C 10_6 0cm 94% 6mph 6mph 1021mB
Afternoon 1.5625mm 18.5 4098m 19°C 19_5 0cm 84% 5mph 6mph 1019mB
Morning 0.723958mm 8.6875 3986m 9°C 9_4 0cm 63% 4mph 5mph 1018mB
Afternoon 1.21354mm 14.375 3950m 17°C 17_3 0cm 59% 3mph 4mph 1012mB
Morning 2.63542mm 20.25 3772m 9°C 9_2 0cm 100% 2mph 4mph 1009mB
Afternoon 3.44271mm 5.75 3778m 11°C 11_5 0cm 100% 5mph 7mph 1003mB
Morning 0.666667mm 5.1875 3165m 5°C 5_8 0cm 82% 8mph 13mph 1006mB

16 day outlook at a glance

Forecast issued: 18/08/2018 18:53:50

Chat

Your comments and questions. In a resort? Let us know what it's like!


Characters left 250

For terms and conditions see Readers Comments on the Cookie and privacy policy page.